Location: ?
(35.4064°N, 139.3593°E)
Time: 18:46:42
(UTC+00:00)

ARIANE 6 FM1 Upper Stage - Pass Details

Date: 15 December 2025
Orbit: 522 x 610 km, 62.0° (Epoch: 12 January)

Event Time Altitude Azimuth Distance (km) Brightness Sun altitude
Rises 20:53:10 0° 230° (SW) 2,705 5.9 -10.4°
Reaches altitude 10° 20:55:30 10° 239° (WSW) 1,801 4.9 -9.9°
Maximum altitude 20:59:17 37° 308° (NW) 835 3.1 -9.2°
Drops below altitude 10° 21:03:00 10° 17° (NNE) 1,775 5.2 -8.5°
Sets 21:05:18 0° 25° (NNE) 2,660 6.2 -8.1°
